Weather in Khulo

Georgia     41°38′39″N   42°18′53″E
temp.,
°C
wind,
m/s
gust,
m/s
humid.,
%
clouds,
%
prec.,
mm/h
press.,
hPa
HPBL,
m
18 may, tue
tue1801:00+7sw119992 0.8 1013123
04:00+6ese11955 0.9 101424
07:00+8ese118717 0.0 101339
10:00+13wsw25525 0.1 10131595
13:00+16w464227 0.1 10132166
16:00+16w36403 0.1 10131933
19:00+14wnw11552 0.0 1013497
22:00+9e32560 0.0 101532
19 may, wed
wed1901:00+9e33521 0.0 101344
04:00+10e445557 0.0 101254
07:00+11sse126154 0.0 101340
10:00+9w239370 0.6 1017318
13:00+10w339598 1.2 1018409
16:00+9nw229591 1.6 1019246
19:00+9wsw128830 0.1 1019367
22:00+6e11969 0.1 102117
20 may, thu
thu2001:00+5e22720 0.0 102022
04:00+5e32460 0.0 101926
07:00+8e33520 0.0 101843
10:00+17sse22300 0.0 1015643
13:00+21sw13235 0.0 10141679
16:00+23wnw24230 0.0 10131929
19:00+19n11510 0.0 101311
22:00+14e44460 0.0 101545
21 may, fri
fri2101:00+13e44570 0.0 101553
04:00+13e44530 0.0 101548
07:00+14e43540 0.0 101453
10:00+22se23360 0.0 1013527
13:00+26ssw22250 0.0 10122740
16:00+26w25250 0.0 10123150
19:00+23ese22461 0.0 101121
22:00+17e443873 0.0 101450
22 may, sat
sat2201:00+16e444999 0.0 101443
04:00+16e454696 0.0 101377
07:00+16e4553100 0.0 101286
10:00+23se3639100 0.0 1010522
13:00+25s3738100 0.0 10092147
16:00+16sse5881100 2.0 1011547
19:00+15ene3377100 5.0 101244
22:00+11e4590100 7.3 101583